GFSSW_700_temp_057.txt.gz
Temp
11 11 11 11 11 11 12 12 12 12 12 12 12 12 12 13 13 13 14 13 12 12 13 12 13 13 13 13 12 10 10 11 11 11 12 13 13 14 14 14 12 11 11 12 11
11 11 11 11 11 11 12 12 12 12 12 12 12 12 13 13 13 14 13 12 12 12 13 13 13 12 13 13 11 10 11 12 13 13 12 13 13 14 13 12 12 12 11 12 10
10 10 11 11 11 11 12 12 12 12 12 12 13 13 13 13 14 14 14 13 13 13 12 12 12 12 12 12 11 11 12 12 13 14 14 14 14 14 13 12 13 13 13 12 10
10 10 10 10 11 11 11 12 12 12 12 12 13 13 13 13 13 14 14 14 13 13 12 12 12 11 12 12 12 12 12 13 14 14 14 15 15 14 14 13 14 13 13 13 11
9 10 10 10 10 11 11 11 12 12 12 12 13 13 13 14 15 12 13 13 13 13 13 13 13 12 12 12 12 12 13 14 14 13 14 14 14 15 14 13 14 14 13 12 11
9 9 9 9 10 10 11 11 11 12 12 12 12 13 14 15 14 13 14 13 13 13 13 12 13 12 11 12 12 13 14 14 14 14 14 13 13 13 13 13 13 14 14 12 11
8 8 8 8 9 9 10 11 11 11 12 12 12 13 14 14 13 13 14 13 13 13 13 13 12 11 11 12 13 13 14 14 15 15 14 12 13 11 10 13 14 14 14 12 12
7 7 8 8 8 8 9 9 10 11 12 12 12 13 14 13 13 14 14 13 13 13 12 12 12 11 11 12 13 13 14 14 16 15 16 12 12 12 12 10 12 13 14 13 13
7 7 7 8 8 8 8 8 9 10 11 11 12 12 14 14 14 13 13 13 13 13 12 12 11 11 12 12 13 14 14 15 16 16 16 14 11 13 14 13 11 11 12 11 11
7 7 7 7 7 8 8 8 9 9 10 10 11 12 12 12 12 12 13 12 12 12 11 11 11 11 11 12 13 13 15 16 16 16 16 15 14 15 14 13 11 11 9 10 11
7 7 7 7 7 7 8 8 8 9 8 8 9 11 12 11 10 11 12 11 10 10 10 11 10 11 11 12 13 13 15 16 16 17 16 17 15 15 14 12 13 13 11 10 11
6 6 6 6 6 6 6 7 6 5 9 11 12 11 12 10 11 11 10 11 10 10 10 10 10 11 12 12 13 14 14 15 17 17 18 16 16 15 15 14 15 14 13 13 11
6 6 6 5 6 6 6 6 6 6 6 10 9 10 12 10 11 11 9 10 10 10 10 10 12 11 12 12 13 14 14 15 16 18 18 17 15 14 13 13 13 14 14 13 12
6 6 6 6 5 5 5 6 5 6 5 9 8 7 7 9 10 11 10 10 10 10 11 11 12 13 12 13 13 14 14 15 16 16 17 17 14 14 14 14 13 13 14 12 12
6 5 5 5 5 5 5 5 5 5 4 8 8 7 7 7 8 11 11 9 10 10 11 11 12 12 13 13 14 14 14 15 15 16 17 17 17 16 15 16 14 13 15 14 13
4 4 5 4 4 4 4 4 5 3 5 7 6 7 7 7 8 8 9 10 10 10 11 12 12 12 13 13 14 14 15 15 16 16 15 17 17 18 15 17 16 14 16 15 14
4 4 4 4 3 3 4 3 3 4 6 6 4 5 7 6 6 6 8 9 10 10 10 11 12 12 13 14 14 14 15 14 14 14 14 17 17 18 18 19 18 17 16 15 15
3 3 3 3 2 2 2 1 2 5 5 4 3 3 4 3 5 4 4 6 10 10 11 11 11 13 13 14 14 15 15 15 11 12 14 17 17 18 18 19 19 17 18 16 15
2 2 1 2 1 -0 -0 0 3 3 2 2 3 2 2 2 2 2 2 4 6 8 10 11 11 14 13 14 15 15 15 16 16 17 16 17 17 18 18 19 19 18 18 18 17
1 2 -1 -1 -1 -1 -1 -0 2 2 1 0 1 1 1 1 1 1 1 3 3 3 4 9 11 13 14 14 15 16 16 16 16 12 13 16 18 18 19 19 19 18 19 19 18
0 1 -1 -1 -1 -1 -1 0 1 1 0 0 0 0 -0 -0 -0 -0 -0 -0 1 3 2 4 8 12 13 15 15 15 16 16 16 16 11 12 17 19 19 19 20 19 19 19 18
-0 0 -1 -1 -1 -1 -0 -1 -0 -1 -0 -0 -0 -1 -1 -1 -1 -1 -2 -1 -2 -1 -0 2 3 10 12 13 15 15 16 16 16 15 16 17 17 19 20 20 20 20 20 19 18
-1 -0 -1 -2 -3 -2 -2 -2 -2 -2 -1 -1 -2 -2 -2 -2 -2 -2 -3 -2 -2 -2 -1 1 3 6 11 12 13 15 16 16 16 16 16 15 16 18 19 21 20 20 20 19 19
-1 -3 -1 -3 -4 -4 -4 -3 -3 -2 -3 -3 -2 -3 -3 -3 -2 -2 -3 -3 -3 -2 -1 -2 2 2 5 11 13 14 16 16 16 16 16 17 17 18 19 20 20 20 20 19 19
-2 -3 -4 -4 -3 -4 -5 -6 -5 -4 -4 -4 -4 -3 -5 -4 -3 -3 -3 -4 -4 -3 -2 -2 2 4 6 9 11 14 16 16 16 16 17 17 18 18 19 19 19 19 19 19 19
-3 -4 -3 -3 -4 -5 -6 -5 -5 -5 -6 -4 -4 -4 -4 -4 -4 -4 -3 -3 -4 -2 -3 -0 1 4 7 9 11 12 14 16 16 16 16 17 18 18 19 18 19 18 19 19 19
-3 -3 -5 -4 -4 -5 -6 -6 -6 -5 -4 -5 -5 -5 -5 -3 -5 -4 -3 -3 -2 -4 -4 -4 0 3 7 9 10 11 14 15 16 17 17 17 18 18 18 18 19 18 18 18 18

GFSSW_700_temp_060.txt.gz
Temp
11 11 11 11 11 11 11 12 12 12 12 12 12 13 13 13 13 14 14 12 12 12 12 12 12 12 12 12 11 10 10 10 11 11 11 12 12 11 12 13 13 12 11 13 12
10 10 11 11 11 11 11 12 12 12 12 12 13 13 13 13 13 14 12 12 12 12 12 12 12 12 13 12 11 10 10 12 12 12 12 12 12 12 13 13 13 12 11 11 11
10 10 10 11 11 11 11 12 12 12 12 12 12 13 13 13 14 14 14 13 13 13 12 11 11 11 12 11 11 11 13 12 12 12 12 12 12 13 13 14 13 13 13 11 11
10 10 10 10 10 11 11 11 12 12 12 12 12 13 13 13 14 13 13 13 13 13 12 12 11 11 12 13 11 12 12 13 12 13 12 13 12 12 13 14 14 14 14 13 12
9 9 9 9 10 10 10 11 11 12 12 12 12 13 13 14 14 13 13 13 13 13 13 13 12 12 13 14 11 12 13 12 12 13 13 13 12 12 14 13 14 14 13 13 12
8 8 8 8 8 9 9 10 10 11 12 12 13 13 13 14 13 13 13 13 13 13 12 12 12 12 13 13 11 14 12 12 12 13 13 13 13 13 13 13 13 14 13 13 13
8 8 8 8 8 8 8 9 9 11 11 12 12 13 14 14 12 13 13 13 13 13 12 12 12 11 12 12 13 13 12 12 12 13 13 13 13 12 12 13 13 14 13 12 12
7 8 8 8 8 8 8 8 9 10 11 11 12 13 14 13 13 13 13 13 13 13 12 11 11 11 11 12 12 12 12 12 13 13 12 12 12 11 13 13 13 13 13 12 12
7 7 8 8 7 8 8 8 8 9 10 11 12 12 14 13 13 12 13 13 12 13 12 11 10 10 10 11 11 12 12 13 13 13 13 12 12 12 11 13 13 13 14 13 12
7 7 7 7 7 8 8 8 8 9 9 9 11 12 12 11 12 12 12 10 12 11 11 11 10 10 11 11 11 11 12 13 13 14 13 12 12 13 12 13 12 13 13 13 13
6 7 7 7 7 7 8 8 9 10 8 9 9 11 11 11 11 10 10 9 10 9 11 11 10 11 11 11 12 11 12 13 14 14 14 15 13 14 13 12 12 13 14 14 14
6 7 7 7 7 6 6 7 6 6 9 7 6 8 11 9 10 10 10 9 9 10 10 9 11 12 11 11 11 12 12 13 14 15 15 15 14 14 14 15 13 13 13 14 14
6 7 7 7 7 5 5 6 6 7 8 8 7 7 8 8 9 9 9 9 9 9 9 10 11 11 11 11 11 12 12 13 13 15 14 14 12 13 14 13 13 13 12 13 14
5 6 6 7 6 5 5 5 5 7 7 7 7 6 6 7 8 9 8 8 9 9 9 9 11 10 11 11 11 11 13 13 13 13 14 15 11 13 14 14 14 14 13 13 13
4 5 5 6 6 5 5 5 5 6 4 6 6 7 6 6 6 8 7 8 8 8 9 9 10 11 10 12 11 12 13 13 13 13 14 14 14 15 14 14 15 15 15 13 14
4 4 4 5 4 4 4 4 5 5 4 5 5 5 7 7 7 7 7 8 8 9 9 9 10 11 12 11 12 12 13 13 13 14 13 14 15 14 14 15 16 16 16 16 15
3 3 4 4 3 2 3 3 4 4 5 3 3 2 4 5 6 7 7 5 5 6 9 9 10 10 11 11 12 12 13 12 10 12 11 15 15 15 16 17 17 17 16 16 15
3 3 3 2 1 2 3 3 3 3 2 2 2 2 3 3 4 5 6 5 5 2 5 7 9 10 11 11 12 12 13 12 9 9 12 15 14 16 17 18 18 18 17 17 15
2 1 1 3 2 0 0 1 1 1 1 1 1 1 1 1 2 3 2 2 0 2 0 1 7 11 11 11 12 12 13 13 13 13 13 15 16 16 16 17 17 17 18 16 17
2 1 1 0 -1 -1 -1 -0 0 0 0 0 0 0 0 -0 1 1 -0 1 0 1 1 0 0 9 11 11 12 12 13 13 13 11 10 13 16 17 17 17 18 18 18 17 17
2 1 -0 0 -0 -1 -1 -1 -1 -1 -1 -1 -1 -0 -1 -1 -1 -1 -1 -1 -0 1 1 -0 -1 6 8 10 12 12 13 14 14 14 12 10 15 17 17 18 18 18 18 17 17
2 1 1 1 0 -1 -2 -2 -2 -2 -2 -2 -1 -1 -2 -2 -1 -1 -2 -2 -1 -1 -0 -1 -2 -1 7 10 11 12 13 13 14 13 15 15 15 17 17 18 18 19 18 18 18
0 1 -1 -1 -1 -1 -2 -2 -3 -4 -3 -3 -3 -2 -2 -2 -2 -3 -3 -2 -2 -2 -2 -2 -1 -1 8 9 10 11 13 13 14 15 15 14 15 16 17 17 18 19 19 18 18
-0 -1 -1 -2 -4 -4 -4 -3 -3 -4 -4 -4 -5 -4 -4 -3 -3 -3 -3 -2 -3 -3 -3 -3 -3 -2 -1 4 5 7 11 13 14 15 15 15 16 16 18 18 19 20 20 19 19
-2 -2 -3 -3 -3 -3 -4 -5 -5 -6 -5 -5 -5 -5 -5 -5 -4 -3 -3 -3 -3 -4 -4 -4 -3 -1 -0 1 4 6 10 12 14 15 15 15 16 16 17 17 19 21 20 19 19
-2 -3 -3 -3 -4 -4 -5 -5 -6 -6 -6 -5 -5 -5 -5 -5 -4 -4 -4 -3 -3 -5 -5 -4 -3 -3 2 6 7 9 11 12 13 14 15 16 16 16 17 17 19 20 20 19 19
-2 -2 -3 -3 -4 -5 -5 -5 -5 -6 -5 -6 -6 -6 -5 -4 -4 -4 -4 -3 -3 -4 -5 -3 -3 -4 -0 8 9 10 10 12 14 15 15 16 16 17 17 17 18 19 19 19 19

GFSSW_700_temp_063.txt.gz
Temp
10 10 11 11 11 11 11 11 11 12 12 12 12 12 12 13 13 13 13 12 11 11 11 11 12 12 12 12 11 11 11 12 12 12 11 12 13 13 12 11 12 12 12 12 13
10 10 10 10 11 11 11 11 11 12 12 12 12 12 12 12 13 13 12 13 12 12 11 12 12 12 12 12 11 10 12 12 12 12 12 12 12 13 12 12 12 12 12 11 12
9 9 10 10 10 11 11 11 11 12 12 12 12 12 12 13 13 13 13 13 13 13 12 11 10 11 11 11 12 12 13 12 12 12 11 12 11 12 12 13 12 13 13 12 12
9 9 9 9 9 10 10 11 11 11 12 12 12 12 12 12 13 13 13 13 13 13 12 11 11 11 11 12 12 13 13 12 12 11 12 12 11 12 13 12 13 13 12 13 12
8 8 8 8 8 9 9 9 10 11 11 12 12 12 13 13 12 12 13 12 13 12 12 12 12 12 12 13 12 13 13 12 11 11 11 12 12 12 13 12 13 14 13 13 12
8 8 8 8 8 8 9 9 9 10 10 11 12 13 13 13 12 12 13 13 12 12 12 12 12 12 12 12 12 14 12 11 11 11 12 12 12 13 13 12 13 14 13 12 12
7 7 8 8 8 8 8 8 8 9 10 11 12 13 13 12 12 12 12 12 12 12 11 11 11 11 11 11 12 12 12 12 11 11 12 12 13 13 13 13 13 14 13 12 12
7 7 7 7 8 8 8 8 8 9 9 10 11 12 13 12 12 12 12 12 12 12 10 10 10 10 11 10 12 11 11 11 12 12 12 13 12 13 13 13 13 13 13 12 12
7 7 7 7 8 8 8 8 8 9 8 9 10 11 12 12 12 12 12 11 11 11 10 10 9 9 10 10 10 10 11 11 12 12 12 12 12 13 12 13 13 13 13 12 11
7 7 7 7 7 8 8 8 8 9 8 9 8 10 10 10 11 11 12 11 10 10 9 9 8 8 9 9 10 10 11 12 12 13 12 12 13 13 13 13 13 13 13 13 12
6 6 7 7 7 8 8 8 8 9 7 7 6 7 8 9 9 9 11 10 9 9 10 10 9 10 12 10 10 11 11 12 13 13 13 13 13 13 13 13 13 12 13 13 13
6 6 7 7 7 7 7 6 7 7 9 6 6 7 7 9 8 7 8 9 9 10 9 9 9 12 11 10 10 10 11 12 14 13 13 13 13 13 14 14 14 13 13 13 12
5 5 5 6 7 7 6 6 6 6 7 6 6 6 6 8 8 7 7 7 8 9 9 8 10 10 10 10 10 10 10 12 12 12 12 13 12 12 12 13 12 12 12 13 13
5 5 5 6 6 6 5 5 5 5 6 6 6 6 6 7 7 7 7 7 7 7 8 8 9 9 9 10 10 10 11 12 12 11 12 12 11 12 13 13 13 13 14 13 12
4 5 5 6 6 5 5 4 4 4 3 5 5 5 5 6 6 6 7 7 7 7 8 8 9 10 8 11 10 11 11 11 11 11 12 12 13 14 14 13 13 14 15 14 14
3 4 4 5 4 4 4 4 4 4 3 4 3 4 4 5 6 6 7 7 7 7 8 8 9 10 10 10 10 11 11 11 11 12 11 12 13 13 14 14 15 15 15 15 14
3 4 4 3 4 4 4 4 4 3 3 2 2 2 2 3 4 5 5 6 6 7 7 8 8 9 9 10 10 10 10 10 9 9 10 12 13 13 14 15 16 16 16 16 16
3 3 3 3 3 3 3 3 3 1 1 0 0 1 1 1 3 3 2 3 3 4 5 5 7 8 9 9 10 10 10 10 7 7 11 13 11 14 14 15 16 15 16 16 16
3 3 3 2 2 2 3 2 0 -1 -1 -1 -0 0 0 -0 1 2 1 1 1 1 3 2 5 8 9 9 10 10 10 11 11 10 10 13 14 14 15 15 15 16 16 16 16
2 2 2 2 2 1 1 0 -1 -2 -1 -1 -1 -0 -0 -0 -0 0 0 -0 -1 -0 -0 -0 2 6 8 8 10 10 11 11 11 9 8 11 14 15 16 16 16 16 17 17 16
2 2 1 2 1 -0 -1 -1 -1 -1 -2 -2 -1 -1 -1 -1 -1 -1 -1 -1 -1 -1 -0 0 -1 5 6 7 9 10 10 11 12 12 10 8 12 15 16 16 16 16 17 17 18
2 1 1 1 0 -1 -2 -2 -2 -1 -2 -2 -2 -3 -2 -2 -2 -2 -2 -2 -2 -2 -1 -1 -1 0 5 8 8 9 10 11 12 11 12 12 12 14 16 17 17 17 17 17 18
1 0 -0 -1 -1 -1 -1 -2 -3 -3 -3 -3 -3 -4 -4 -4 -3 -3 -3 -3 -3 -3 -2 -2 -2 1 5 8 7 7 9 9 11 12 13 12 13 14 15 16 17 17 17 18 18
0 -1 -1 -2 -3 -3 -2 -3 -3 -5 -5 -5 -5 -5 -5 -5 -4 -4 -3 -3 -3 -3 -3 -3 -3 -1 1 1 0 3 7 8 5 8 12 13 13 14 15 16 16 17 17 18 18
-1 -2 -3 -3 -4 -4 -4 -4 -5 -6 -5 -5 -5 -5 -6 -5 -4 -4 -3 -3 -3 -4 -3 -3 -4 -3 -1 2 1 1 4 8 7 9 10 13 14 14 15 16 17 17 18 18 18
-2 -3 -3 -4 -4 -4 -5 -5 -5 -6 -6 -6 -6 -6 -6 -5 -5 -5 -4 -4 -4 -4 -4 -4 -4 -4 -1 1 1 2 6 6 9 10 11 13 14 15 15 15 16 16 17 18 19
-1 -2 -4 -4 -5 -5 -5 -5 -5 -6 -6 -6 -6 -6 -5 -5 -5 -4 -4 -4 -4 -4 -5 -4 -4 -4 -0 1 1 3 4 5 9 9 12 13 14 14 15 16 16 17 17 19 19

GFSSW_700_temp_069.txt.gz
Temp
10 10 10 10 10 10 10 11 11 11 12 12 12 12 12 12 12 12 11 12 12 11 11 12 12 12 12 12 12 11 10 11 11 11 11 12 12 12 12 12 12 11 11 10 12
9 9 9 9 9 10 10 10 10 11 11 12 12 12 12 12 12 12 11 12 12 12 12 12 12 12 12 12 12 12 12 12 11 11 11 12 12 12 12 12 11 11 11 10 11
8 8 8 8 9 9 9 10 10 10 10 11 12 12 12 12 12 12 12 12 12 12 11 11 10 11 11 11 12 13 13 12 11 11 11 11 12 12 12 12 12 11 11 11 11
7 8 8 8 8 8 9 9 9 10 10 10 11 12 12 12 12 12 12 12 12 11 11 11 11 11 11 11 12 12 13 12 11 11 11 11 11 12 12 12 11 11 11 12 11
7 7 7 8 8 8 8 8 9 9 9 10 10 11 12 12 12 12 12 12 12 11 11 12 12 12 11 12 12 12 12 12 11 11 11 11 12 12 12 12 12 12 11 10 11
7 7 7 7 8 8 8 8 8 9 9 9 10 11 11 12 12 12 12 11 12 11 11 11 11 11 11 11 11 12 12 12 11 11 12 12 12 12 13 12 13 12 12 11 11
7 7 7 7 8 8 8 8 8 9 9 9 9 11 11 11 12 12 12 12 11 11 10 10 10 10 10 10 11 11 12 12 11 11 12 12 12 13 12 13 13 12 12 12 11
7 7 7 7 7 7 7 7 8 9 8 8 9 10 10 11 11 11 11 11 11 11 10 9 10 9 9 10 10 11 10 11 12 11 12 12 12 12 12 13 13 13 13 13 12
7 6 6 7 7 7 7 7 8 8 8 8 8 9 9 9 10 10 10 10 9 10 10 9 8 9 8 9 9 10 11 11 12 11 12 12 12 12 12 12 13 12 13 13 12
6 6 6 7 7 7 7 7 8 8 7 7 7 8 8 8 8 9 9 9 9 9 9 8 8 8 8 8 10 10 10 11 11 11 11 12 12 12 13 12 13 13 13 13 13
6 6 6 7 8 8 7 7 7 8 6 7 6 6 7 7 7 7 8 8 8 7 8 8 8 10 10 9 8 9 9 11 12 11 11 12 11 13 13 13 13 13 13 14 13
6 6 6 7 7 7 8 7 7 7 6 6 6 6 7 7 6 6 6 7 7 7 7 7 8 10 9 9 8 8 9 10 11 12 11 12 12 13 13 13 13 13 13 13 13
6 5 6 6 6 6 6 7 7 7 7 5 5 6 6 5 5 5 6 6 6 6 7 6 8 8 9 8 8 8 8 9 11 11 11 11 12 12 13 13 12 12 12 12 12
5 5 5 5 5 5 5 5 5 5 5 4 4 5 5 5 5 5 5 6 5 5 6 6 7 8 8 8 9 8 10 9 10 10 12 11 14 13 13 14 13 13 13 12 12
5 5 5 5 5 4 4 4 4 4 6 4 3 4 5 5 5 5 6 5 6 6 6 6 7 7 7 8 8 8 9 10 9 9 10 11 11 14 13 13 14 14 14 13 12
5 5 4 4 4 4 4 4 4 4 4 3 3 3 3 4 4 5 5 6 6 6 6 6 7 7 7 8 8 8 8 8 8 9 10 11 11 13 12 13 14 14 14 14 13
5 4 4 4 4 4 4 4 3 4 3 1 2 2 3 3 4 4 5 5 6 6 6 6 6 7 7 7 7 7 8 9 9 10 11 12 11 12 12 13 14 14 14 14 14
4 4 4 4 3 4 4 3 3 2 2 0 0 1 1 1 2 3 3 3 4 5 5 6 7 7 7 7 8 7 8 10 10 12 13 11 11 12 12 13 13 14 14 14 14
4 3 4 3 3 3 3 2 2 1 0 -0 -0 -0 -0 -0 1 1 1 2 2 3 4 4 5 6 7 7 7 7 7 9 10 9 11 13 11 11 12 12 13 14 14 15 15
3 3 3 3 3 3 2 1 0 -0 -1 -1 -1 -1 -1 -1 -1 -0 0 1 1 2 2 2 3 5 6 7 7 8 8 8 8 10 10 12 12 13 13 12 13 14 14 15 16
3 3 2 2 2 1 1 -0 -1 -1 -2 -2 -2 -2 -2 -2 -1 -1 -1 -0 0 0 1 1 1 4 5 6 7 7 7 8 9 9 12 12 12 12 12 13 14 14 14 15 16
2 2 2 1 1 0 -1 -1 -2 -2 -2 -3 -3 -3 -3 -3 -2 -2 -2 -1 -1 -1 -1 0 -0 1 3 4 6 6 6 7 8 9 9 11 12 12 13 13 14 14 15 15 16
2 1 1 1 0 -1 -2 -2 -3 -3 -3 -4 -4 -4 -4 -4 -4 -3 -3 -2 -2 -2 -2 -2 -2 0 4 4 4 3 5 6 7 7 8 10 11 11 12 13 13 14 15 15 16
1 1 0 0 -1 -2 -3 -4 -4 -4 -4 -5 -5 -5 -5 -5 -5 -5 -4 -4 -3 -3 -3 -3 -2 -1 2 0 -1 0 2 3 2 6 8 9 10 10 11 13 13 14 14 15 16
1 -0 -0 -1 -2 -3 -3 -4 -4 -5 -5 -5 -5 -5 -6 -5 -5 -5 -6 -5 -5 -4 -4 -4 -4 -3 -2 -2 -1 -0 1 1 0 3 6 9 8 9 11 12 13 14 14 14 14
0 -0 -1 -2 -3 -4 -4 -6 -5 -6 -6 -6 -6 -6 -6 -6 -6 -6 -5 -5 -5 -4 -4 -4 -4 -4 -2 -1 -2 0 1 2 1 2 2 6 8 9 10 12 12 13 14 14 15
1 1 -0 -3 -4 -5 -6 -6 -5 -6 -6 -6 -6 -6 -6 -6 -6 -6 -6 -5 -5 -5 -5 -5 -5 -4 -2 -3 -3 0 2 4 2 2 3 5 8 10 10 11 12 12 13 14 15

GFSSW_700_temp_072.txt.gz
Temp
9 9 9 9 9 10 10 11 11 11 11 11 12 12 12 12 12 12 11 12 12 12 11 12 12 11 11 11 12 11 10 12 13 12 12 12 12 12 11 12 11 11 11 12 12
8 8 9 9 9 9 9 10 10 11 11 11 12 12 12 12 12 12 12 12 12 12 12 12 12 12 11 11 11 9 10 12 12 12 12 12 11 13 12 12 11 11 12 12 12
8 8 8 8 9 9 9 9 10 10 11 11 11 11 12 12 12 12 12 12 12 12 11 11 10 10 8 9 9 9 11 11 12 11 12 12 11 11 11 10 11 11 11 12 12
7 8 8 8 8 8 9 9 9 10 10 10 11 11 12 12 11 12 12 12 12 12 11 11 11 10 9 9 9 10 11 11 11 11 11 12 12 11 11 11 11 12 11 12 12
7 7 8 8 8 8 8 8 9 9 10 10 10 11 11 11 12 12 12 12 12 11 11 11 11 8 9 10 9 10 10 10 10 11 11 11 11 12 11 12 12 12 12 11 11
7 7 8 8 8 8 8 8 8 9 9 10 10 10 10 11 11 11 11 12 12 11 11 10 10 9 9 9 10 11 10 11 11 11 11 12 12 11 11 12 12 12 11 11 11
7 7 7 8 8 8 8 8 8 8 9 9 9 10 10 11 11 11 11 11 11 11 10 10 10 9 9 9 9 10 11 11 11 11 12 12 12 12 13 13 13 12 12 11 10
7 7 7 8 8 8 8 8 7 8 8 9 9 9 9 10 11 11 11 11 11 11 10 9 10 9 9 9 10 10 11 13 13 12 12 12 15 12 13 13 13 13 12 12 11
7 6 7 7 8 8 8 7 7 8 8 8 8 8 8 8 9 10 10 10 10 10 9 9 9 8 8 9 11 11 13 13 14 13 13 12 14 13 13 13 13 13 13 12 11
6 6 6 7 8 8 8 8 7 7 7 7 7 8 8 8 9 9 8 8 9 9 9 8 7 7 8 10 13 14 13 15 14 13 13 13 14 13 13 13 13 13 12 13 12
6 6 6 7 7 8 8 8 7 7 7 7 7 7 8 8 8 8 8 8 7 7 7 6 7 9 10 10 12 12 14 14 14 14 13 14 14 12 13 13 13 13 13 13 12
6 6 6 7 7 7 8 8 8 7 6 6 6 6 6 7 5 6 7 7 7 6 6 6 8 9 9 10 10 11 11 13 14 13 13 14 14 14 12 13 13 13 13 13 12
6 6 6 6 6 6 7 6 7 7 6 5 5 5 5 6 5 5 6 5 5 6 7 8 9 9 9 9 8 10 11 13 14 13 12 13 14 14 13 12 11 13 12 12 13
6 6 6 6 6 5 5 5 5 6 5 4 4 5 5 5 5 5 6 6 6 7 7 7 8 8 8 8 9 10 11 11 12 12 14 13 16 14 14 12 11 13 13 13 12
6 5 5 5 5 5 5 5 5 5 9 4 3 5 5 4 5 5 6 6 6 7 7 8 8 8 8 9 9 10 11 10 11 11 13 14 14 16 15 13 12 13 12 13 13
5 5 5 5 5 4 4 4 4 5 8 4 3 3 4 4 4 5 5 5 6 6 6 7 8 8 8 9 9 9 9 10 10 11 13 14 14 16 15 14 13 12 12 14 14
4 5 5 4 4 4 3 4 4 7 5 3 3 2 3 3 4 4 4 5 6 7 7 7 8 7 8 9 9 8 9 12 13 13 15 14 14 15 16 15 14 14 13 14 14
4 4 4 4 4 4 3 2 5 3 3 1 1 2 3 2 3 3 4 5 4 5 7 9 9 8 8 9 10 9 10 13 13 16 16 14 15 14 14 14 14 14 14 13 13
3 3 4 4 3 4 3 4 3 1 -0 0 2 2 3 2 2 2 3 3 2 4 5 7 8 7 7 8 9 10 9 11 14 15 15 16 14 14 14 14 13 13 14 13 13
3 3 3 3 3 3 2 2 -1 -1 -0 -1 2 1 2 2 1 2 3 1 1 2 2 4 5 6 6 7 7 8 10 10 11 13 14 16 16 15 14 13 14 14 14 14 14
3 2 2 2 2 0 2 -1 -2 -1 -0 -1 -1 0 1 0 0 1 2 1 -0 0 1 1 3 6 5 6 8 8 8 10 11 12 15 15 16 15 15 14 14 14 14 15 15
2 0 1 1 -0 0 -2 -1 -2 -3 -3 -3 -3 -2 -2 -2 -1 -0 0 0 -1 -1 1 1 2 4 6 6 6 7 8 9 11 12 12 13 16 14 14 14 14 14 15 15 14
2 1 1 1 -0 -2 -2 -1 -2 -3 -3 -4 -3 -4 -4 -3 -2 -2 -1 -2 -3 -1 -1 -0 2 3 5 5 5 6 7 7 10 11 12 13 13 14 13 13 13 13 13 13 15
2 -1 1 1 -0 -2 -3 -4 -4 -3 -3 -4 -4 -4 -4 -3 -3 -3 -3 -3 -4 -3 -3 -2 0 1 5 4 3 3 4 5 7 9 11 12 13 13 13 13 12 12 12 13 14
2 1 1 -1 -2 -2 -2 -2 -5 -5 -5 -4 -5 -5 -5 -4 -3 -3 -4 -4 -3 -3 -3 -3 -1 0 1 1 1 1 2 2 4 6 9 11 11 12 12 11 11 12 12 13 14
2 2 1 -0 -2 -5 -4 -4 -5 -6 -5 -5 -5 -6 -6 -6 -5 -4 -4 -4 -4 -4 -3 -3 -2 -2 -1 0 1 1 2 2 3 4 5 6 8 10 10 10 11 11 12 13 14
2 1 0 -1 -4 -5 -5 -6 -6 -6 -6 -6 -6 -6 -6 -6 -6 -5 -6 -5 -5 -4 -4 -4 -3 -2 -0 1 1 2 3 3 4 4 4 5 7 9 8 9 10 12 12 13 13

GFSSW_700_temp_075.txt.gz
Temp
9 9 9 9 9 10 10 10 10 11 11 11 12 12 12 12 12 12 12 12 13 12 12 12 12 12 10 8 9 9 11 13 13 15 13 13 13 12 11 11 11 11 10 12 11
8 8 9 9 9 9 10 10 10 10 11 11 11 11 12 12 12 12 12 12 12 12 12 13 11 9 9 9 10 10 13 12 13 13 12 13 13 13 13 12 11 10 10 12 11
8 8 8 9 9 9 9 10 10 10 10 11 11 11 12 12 12 13 12 12 12 12 11 10 8 8 9 10 11 11 12 12 12 14 13 14 14 13 13 12 12 10 13 13 11
8 8 9 9 9 9 9 9 9 10 10 10 11 11 11 11 10 14 13 12 12 12 11 8 8 9 10 11 12 12 12 13 13 13 13 13 13 14 13 11 11 12 13 13 12
7 8 8 8 9 9 9 9 10 10 10 10 10 10 11 11 10 12 12 12 12 12 12 8 9 10 11 12 12 12 13 13 13 13 13 13 13 13 13 13 11 12 13 12 10
7 7 8 8 9 9 9 9 9 9 9 10 10 10 10 10 12 12 12 12 12 12 11 8 9 10 11 12 13 13 13 13 13 14 14 13 14 14 13 12 11 12 12 11 9
7 7 7 8 8 9 9 9 8 8 8 9 10 10 10 9 11 11 11 11 11 11 8 8 9 10 11 12 12 13 13 13 13 14 14 13 13 14 13 12 11 11 10 9 9
7 7 7 8 8 8 9 9 8 8 8 9 9 9 7 10 11 11 11 11 11 11 8 8 9 9 11 12 12 12 13 14 15 14 14 14 15 15 13 12 11 11 10 9 10
7 7 7 7 8 8 8 9 8 8 8 8 8 8 7 9 9 10 10 10 10 9 7 8 8 9 10 11 12 13 15 15 16 15 15 14 15 12 13 12 12 11 10 10 10
7 7 7 7 7 8 8 8 8 8 8 7 7 7 6 7 9 9 9 9 9 9 8 7 7 9 11 11 14 16 15 17 16 16 15 16 15 13 12 13 12 11 10 10 9
7 6 6 7 7 8 8 8 7 7 7 8 7 7 7 7 8 7 8 8 7 7 8 7 9 10 12 12 14 16 17 17 17 17 16 16 16 15 13 13 13 12 11 10 10
6 6 6 7 7 7 8 7 7 8 6 7 7 6 7 7 7 6 7 7 7 7 8 9 9 11 12 13 13 14 15 16 17 17 16 16 16 15 14 13 13 12 11 11 10
6 6 6 6 6 7 7 7 6 6 7 6 5 6 6 6 7 6 6 7 8 8 9 10 11 11 11 12 13 13 14 15 16 17 16 16 16 15 13 13 13 13 12 11 10
6 6 6 6 6 6 5 6 6 6 6 7 6 6 6 6 7 6 6 7 8 9 9 10 11 11 11 12 12 13 13 14 15 16 16 16 18 17 14 12 13 13 13 12 11
5 5 5 5 5 4 5 6 6 6 11 7 7 6 5 7 7 6 7 6 7 9 9 10 10 11 11 11 12 12 13 13 14 15 16 17 16 18 17 15 15 14 14 13 12
5 5 5 5 5 5 5 5 6 6 10 6 6 6 6 6 7 6 6 6 7 8 9 10 10 10 11 11 11 11 12 13 13 14 16 16 17 18 18 16 15 15 14 13 13
4 4 4 5 4 4 4 5 6 9 7 6 7 6 6 7 7 6 7 8 8 9 9 9 9 10 10 11 11 11 12 13 14 15 16 16 16 18 18 16 16 16 15 14 13
4 4 4 4 4 4 4 3 7 8 7 4 5 5 6 6 7 6 7 7 7 8 9 10 11 10 11 10 11 11 12 14 15 17 18 16 17 17 17 16 14 16 15 15 14
4 4 4 4 4 4 4 6 7 5 3 4 5 5 7 5 5 5 6 7 7 6 7 10 11 11 11 10 11 12 12 13 15 17 18 18 17 17 17 17 15 14 16 15 14
3 3 2 3 3 4 3 5 3 2 1 3 5 5 6 6 5 6 7 6 5 4 4 7 8 9 10 9 10 11 12 13 13 15 17 19 19 17 17 17 16 16 16 16 15
3 1 2 3 3 2 5 3 1 -0 1 1 3 3 4 4 4 4 5 4 3 3 3 5 6 8 9 9 9 10 10 11 13 14 17 18 19 18 17 16 16 16 15 16 16
2 3 3 2 3 3 3 1 0 -0 -0 0 1 1 2 2 2 3 4 4 1 1 3 5 5 7 8 9 9 9 11 11 12 14 15 16 18 17 18 17 16 16 16 16 16
0 0 2 2 4 2 -0 -1 -1 -0 -1 -0 0 -0 0 1 1 2 2 2 0 0 2 2 3 5 7 7 8 8 9 10 12 13 15 16 16 15 15 16 16 15 16 16 16
0 2 1 0 0 1 0 -1 -0 -2 -2 -2 -2 -2 -0 0 1 0 0 -0 -2 -1 -1 -1 1 3 7 8 7 8 8 9 10 12 13 14 16 15 15 15 14 13 13 13 13
1 1 1 -0 -0 -1 -1 -2 -1 -1 -2 -2 -2 -2 -2 -1 -0 0 -1 -1 -1 -1 -2 -1 0 2 3 4 4 5 6 7 8 9 11 13 14 14 14 14 13 13 11 12 13
1 -1 -1 -2 -2 -1 -2 -2 -3 -4 -3 -4 -3 -4 -3 -2 -2 -2 -1 -1 -1 -2 -3 -2 -1 -1 1 2 4 4 5 5 5 6 7 9 10 12 11 10 11 11 10 10 10
3 3 -1 -1 -2 -1 -3 -4 -4 -5 -4 -4 -4 -4 -2 -2 -3 -3 -2 -2 -2 -2 -2 -2 -2 -1 0 2 3 4 4 5 5 6 7 8 9 10 10 9 9 9 9 10 11